Location: Montague
(41.3030°N, 74.7940°W)
Time: 03:53:56
(UTC-05:00)

Daily predictions for brighter satellites

Satellite Brightness Start Highest point End
(mag) Time Altitude Azimuth Time Altitude Azimuth Time Altitude Azimuth
Cosmos 2369 Rocket 4.4 02:59:34 20° NNE 02:59:34 20° NNE 03:01:15 10° NNE
ATLAS 5 CENTAUR R/B 3.9 03:28:12 24° NE 03:28:12 24° NE 03:30:14 10° NE
Cosmos 1943 Rocket 3.4 03:33:34 37° NE 03:33:34 37° NE 03:36:57 10° NNE
ADEOS II 2.8 03:43:17 10° NNE 03:47:39 51° ENE 03:47:39 51° ENE
CZ-4B R/B 3.6 03:44:58 10° NNE 03:50:12 64° ENE 03:50:12 64° ENE
Okean-O 4.1 04:03:57 10° NNE 04:08:01 35° E 04:10:30 20° SSE
Lacrosse 5 rocket 3.8 04:08:34 14° NNE 04:08:39 14° NNE 04:10:39 10° ENE
Tiangong 1 4.1 04:16:41 15° ENE 04:16:41 15° ENE 04:17:17 10° ENE
Lacrosse 5 2.6 04:16:33 41° N 04:16:33 41° N 04:20:30 10° NE
Okean 2 Rocket 4.3 04:14:30 10° N 04:18:41 41° ENE 04:22:51 10° SSE
Cosmos 1703 Rocket 4.0 04:22:19 55° NNE 04:22:19 55° NNE 04:25:47 10° N
ATLAS CENTAUR R/B 3.8 04:21:01 48° WSW 04:21:41 49° SW 04:36:42 10° SSE
Meteor 1-14 Rocket 4.4 04:18:55 10° N 04:24:44 73° E 04:30:23 10° SSE
CZ-4C R/B 2.0 04:27:46 63° SW 04:28:44 88° NW 04:34:42 10° NE
Cosmos 1656 Rocket 3.6 04:30:11 49° SSW 04:31:50 85° WNW 04:37:33 10° NNE
Cosmos 1954 Rocket 3.9 04:30:13 17° NNW 04:34:24 75° WSW 04:39:42 10° SSE
PAYLOAD B 4.5 04:29:50 10° N 04:34:53 47° WNW 04:34:53 47° WNW
S3M 4.3 04:30:30 10° S 04:36:47 69° E 04:43:01 10° NNE
GEOS 3 Rocket 3.4 04:32:30 10° SSE 04:37:35 75° SW 04:39:30 39° NW
Meteor 1-26 Rocket 4.1 04:36:08 35° SSW 04:38:37 72° W 04:44:13 10° N
CZ-4B DEB 4.4 04:34:14 10° N 04:39:33 48° WNW 04:39:46 48° WNW
Cosmos 2369 Rocket 3.8 04:41:22 19° NW 04:41:22 19° NW 04:44:14 10° N
Cosmos 2219 3.2 04:35:09 10° NNW 04:40:52 80° ENE 04:46:30 10° SSE
USA 234 3.2 04:35:03 10° NE 04:41:37 86° SE 04:45:09 30° SW
Cosmos 1420 Rocket 3.9 04:38:53 27° SSW 04:41:47 84° ESE 04:46:59 10° NNE
Cosmos 1553 Rocket 4.1 04:36:37 10° S 04:42:48 80° E 04:49:07 10° N
Cosmos 2227 Rocket 4.1 04:38:22 10° N 04:43:15 28° NE 04:48:06 10° ESE
Meteor 1-25 Rocket 4.4 04:38:11 10° N 04:44:02 75° E 04:49:52 10° SSE
Okean O Rocket 3.7 04:40:53 10° NNW 04:41:51 15° NNW 04:41:51 15° NNW
Meteor 1-31 Rocket 2.6 04:45:20 10° N 04:49:14 82° WNW 04:50:11 50° SSW
COSMO-SKYMED 1 3.7 04:45:50 10° SE 04:49:57 45° ENE 04:54:06 10° N
NOAA 6 4.5 04:46:08 10° NNE 04:51:16 62° ESE 04:56:20 10° S
Cosmos 546 4.5 04:54:19 63° WNW 04:54:53 84° SW 04:58:43 10° SE
Meteor 2-10 Rocket 3.6 04:54:31 39° WSW 04:55:47 48° WNW 05:00:44 10° N
ATLAS 3B R/B 3.2 04:53:53 10° SSW 05:01:24 68° ESE 05:08:40 10° NE
Okean 1-7 3.0 05:00:20 35° SW 05:01:47 53° W 05:05:58 10° N
Cosmos 2221 Rocket 3.9 05:01:45 36° WSW 05:02:59 45° WNW 05:07:22 10° N
ERS-2 3.9 05:02:20 10° N 05:03:55 20° NNW 05:03:55 20° NNW
Thor Agena Rocket 3.5 05:04:09 10° S 05:09:17 60° WSW 05:14:24 10° NNW
Cosmos 1452 Rocket 4.1 05:07:57 30° W 05:09:20 35° WNW 05:14:10 10° N
ATLAS 5 CENTAUR R/B 3.5 05:09:45 17° NW 05:10:35 17° NNW 05:14:04 10° N
Meteor 1-10 Rocket 4.2 05:07:34 10° S 05:13:08 84° E 05:18:49 10° N
Cosmos 1943 Rocket 3.5 05:15:06 19° WNW 05:15:43 20° NW 05:19:41 10° N
SKYMED 3 4.5 05:15:34 10° SSE 05:19:53 84° WSW 05:24:16 10° NNW
Cosmos 1741 Rocket 4.0 05:16:23 10° NNW 05:21:33 61° WSW 05:26:43 10° S
CZ-4 R/B 4.5 05:18:44 10° NE 05:21:44 19° E 05:24:41 10° SE
Cosmos 1932 4.5 05:16:18 10° SW 05:22:40 79° NW 05:29:11 10° NNE
Radarsat Rocket 4.2 05:17:27 10° NNE 05:24:40 88° WNW 05:30:58 10° SSW
Cosmos 1782 Rocket 4.5 05:21:18 10° NNW 05:24:59 26° W 05:28:39 10° SW
Abrixas 4.4 05:24:13 15° NNW 05:25:33 20° N 05:27:49 10° ENE
ADEOS II 3.4 05:24:08 10° NNW 05:27:44 19° WNW 05:28:37 18° WNW
Meteor 1-28 Rocket 3.1 05:26:28 10° SSE 05:30:10 87° WSW 05:33:57 10° NNW
Cosmos 1300 Rocket 4.2 05:26:22 10° N 05:30:45 59° E 05:35:05 10° SSE
Cosmos 2315 Rocket 4.4 05:26:30 10° S 05:32:49 71° E 05:39:09 10° NNE
Cosmos 1745 Rocket 4.1 05:27:01 10° NNW 05:32:55 50° W 05:38:46 10° SSW
Cosmos 1386 Rocket 4.4 05:26:59 10° NNW 05:32:59 67° W 05:39:04 10° S
Cosmos 1140 Rocket 4.3 05:28:44 10° NW 05:33:09 28° W 05:37:34 10° SSW
Cosmos 614 Rocket 4.5 05:30:43 10° NW 05:35:20 35° WSW 05:39:57 10° SSW
SKYMED 2 3.7 05:33:44 10° S 05:37:57 52° W 05:42:13 10° NNW
CSL-04 Rocket 4.2 05:33:46 10° NNE 05:39:09 64° ESE 05:44:34 10° S
Cosmos 883 Rocket 4.5 05:36:15 10° SSW 05:42:33 72° W 05:48:55 10° N
Cosmos 1536 4.0 05:39:28 10° N 05:43:20 47° E 05:47:12 10° SSE
Okean-O 3.8 05:40:52 10° NNW 05:44:18 22° WNW 05:47:42 10° WSW
Cosmos 2082 4.0 05:39:44 10° NNW 05:45:26 74° ENE 05:51:03 10° SSE
Meteor 1-27 Rocket 3.8 05:41:50 10° S 05:47:38 84° W 05:53:34 10° N
Lacrosse 5 rocket 1.1 05:44:48 10° NW 05:48:25 78° NE 05:52:01 10° SE
Cosmos 1674 Rocket 3.5 05:44:24 10° SSW 05:48:47 70° W 05:53:13 10° N
Cosmos 1378 Rocket 4.2 05:44:57 10° S 05:49:15 60° E 05:53:33 10° NNE
USA 81 4.4 05:44:42 10° SSW 05:49:40 42° W 05:54:41 10° N
Tiangong 1 1.1 05:48:10 15° WNW 05:50:26 64° N 05:53:21 10° E
BREEZE M DEB (TANK) 4.3 05:42:44 12° W 05:53:37 41° NNW 05:57:35 10° ENE
Cosmos 1606 3.6 05:52:58 10° SW 05:56:23 29° WNW 05:59:51 10° NNW
Cosmos 1602 3.8 05:55:36 10° NNW 05:59:29 56° W 06:03:20 10° S
Lacrosse 5 3.7 05:56:27 10° WNW 05:59:42 17° NNW 06:02:57 10° NNE
Cosmos 2369 3.7 05:55:28 10° SSW 06:01:07 81° WNW 06:06:48 10° NNE
PAYLOAD A 3.9 05:57:00 10° NNE 06:01:47 89° WNW 06:06:40 10° SSW
Cosmos 1607 4.2 05:57:20 10° SW 06:03:14 49° NW 06:09:14 10° NNE
SJ-12 4.4 06:00:02 10° NNE 06:04:08 67° E 06:08:14 10° S
Cosmos 1782 4.2 06:02:37 10° WSW 06:05:28 19° WNW 06:08:21 10° NNW
Cosmos 2297 Rocket 2.2 06:01:27 10° NNW 06:07:09 85° WSW 06:12:47 10° SSE
Okean 1 Rocket 3.0 06:06:03 10° NNW 06:10:26 67° W 06:14:46 10° S
